Starlink 35755

operational
NORAD ID: 67163 Int'l Des: 2025-303 Owner: SPXS Country: US Constellation: starlink
LEOCIRCULAR

About Starlink 35755

Description loading...

Live Position

Loading 3D Globe...

Upcoming Passes

Altitude History

Altitude vs Time

uPlot chart will show altitude changes over time

Two-Line Element Set

1 67163C 25303A 25352.76368056 .00675670 00000+0 10035-2 0 3528
2 67163 43.0044 61.8091 0007376 289.0013 237.2002 16.03146999 16
Epoch: Dec 18, 2025 • Age: 42 hours

Current Status

Altitude 268.6 km
Velocity 7.75 km/s
Sub-Earth Point 38.30°N, 179.2°E
Launch Date Dec 17, 2025
Age 2 days
Type internet

Technical Details

Classification Payload
Mass 575.00 kg
Dry Mass 530.00 kg
Total Mass 575.00 kg
Length 0.30 m
Diameter 4.10 m
Span 29.00 m
Shape Box + pan
Manufacturer SPXS
Bus Type Starlink V2MO
Phase Status In Orbit
Owner/State SPXS/US

Large Constellations

Loading constellations...